Location: Unspecified
(43.4680°N, 87.1740°E)
Time: 04:15:36
(UTC+00:00)

Cosmos 1356 Rocket - Pass Details

Date: 17 April 2021
Orbit: 543 x 597 km, 81.2° (Epoch: 17 May)

Event Time Altitude Azimuth Distance (km) Brightness Sun altitude
Rises 21:56:17 0° 345° (NNW) 2,753 7.1 -15.4°
Reaches altitude 10° 21:58:28 10° 342° (NNW) 1,861 6.2 -15.1°
Maximum altitude 22:02:30 58° 264° (W) 669 3.4 -14.4°
Drops below altitude 10° 22:06:34 10° 185° (S) 1,878 5.7 -13.8°
Enters shadow 22:07:49 - 182° (S) 2,382 6.3 -13.6°
